This is the latest recevied weather packets stored in our database for station/object SQ2WB-13. If no packets are shown the sender has not sent any weather packets the latest 10 day(s).
| Time | Temp. | Humidity | Pressure | Rain* | Wind** | Luminosity | Snow |
|---|---|---|---|---|---|---|---|
| 1777805102 | 26.67° C | 27% | 1005.7 hPa | 0 mm | - | - | - |
| 1777804202 | 27.78° C | 30% | 1005.7 hPa | 0 mm | - | - | - |
| 1777803306 | 26.67° C | 30% | 1006.1 hPa | 0 mm | - | - | - |
| 1777802402 | 25.56° C | 31% | 1006.4 hPa | 0 mm | - | - | - |
| 1777801501 | 25.56° C | 31% | 1006.4 hPa | 0 mm | - | - | - |
| 1777800602 | 25.56° C | 33% | 1006.4 hPa | 0 mm | - | - | - |
| 1777798801 | 25° C | 34% | 1006.7 hPa | 0 mm | - | - | - |
| 1777797901 | 25° C | 35% | 1006.7 hPa | 0 mm | - | - | - |
| 1777797001 | 23.89° C | 36% | 1007.4 hPa | 0 mm | - | - | - |
| 1777796102 | 23.89° C | 36% | 1006.7 hPa | 0 mm | - | - | - |
| 1777795201 | 22.78° C | 38% | 1007.4 hPa | 0 mm | - | - | - |
| 1777794301 | 21.67° C | 39% | 1007.4 hPa | 0 mm | - | - | - |
| 1777793402 | 21.67° C | 39% | 1007.4 hPa | 0 mm | - | - | - |
| 1777792502 | 20.56° C | 41% | 1007.4 hPa | 0 mm | - | - | - |
| 1777791603 | 20° C | 42% | 1007.7 hPa | 0 mm | - | - | - |
| 1777790701 | 18.89° C | 45% | 1007.7 hPa | 0 mm | - | - | - |
| 1777789801 | 18.89° C | 46% | 1007.7 hPa | 0 mm | - | - | - |
| 1777788901 | 17.78° C | 48% | 1007.7 hPa | 0 mm | - | - | - |
| 1777788002 | 16.67° C | 50% | 1007.7 hPa | 0 mm | - | - | - |
| 1777787101 | 16.67° C | 53% | 1007.7 hPa | 0 mm | - | - | - |
| 1777786201 | 15.56° C | 54% | 1007.7 hPa | 0 mm | - | - | - |
| 1777785302 | 15° C | 56% | 1007.7 hPa | 0 mm | - | - | - |
| 1777784402 | 13.89° C | 58% | 1007.7 hPa | 0 mm | - | - | - |
| 1777783502 | 12.78° C | 59% | 1007.7 hPa | 0 mm | - | - | - |
| 1777782601 | 12.78° C | 59% | 1008.1 hPa | 0 mm | - | - | - |
* Rain latest hour (hover to see other rain measurements)
** Current wind speed in m/s (hover to see current wind gust speed)